Location: Geroldsau
(48.7259°N, 8.2466°E)
Time: 08:57:51
(UTC+00:00)

FENGYUN 1C DEB - Pass Details

Date: 05 February 2022
Orbit: 832 x 1169 km, 98.6° (Epoch: 24 May)

Event Time Altitude Azimuth Distance (km) Brightness Sun altitude
Rises 02:59:24 0° 144° (SE) 3,378 ? -38.1°
Enters shadow 03:00:33 - 141° (SE) 2,926 ? -38.0°
Exits shadow 03:13:34 - 352° (N) 3,081 ? -35.9°
Sets 03:14:35 0° 350° (N) 3,474 ? -35.8°
